User: anonymous   Login
Location: Carrer del Canonge
(41.4901°N, 2.2931°E)
Time: 07:50:40
(UTC+00:00)
Language:

NOSS 3-2 (C) - Orbit

View from above orbital plane
View from above orbital plane
View from above satellite
View from above satellite

Ground track
Ground track

The orbit data is extracted from the following two-line orbital elements,

1 28097U 03054C   20331.15741011 0.00000000  00000-0  00000-0 0    00
2 28097  63.4102 345.2100 0425229 359.6528   0.3472 13.40768468    04
Epoch (UTC): 26 November 2020 03:46:40
Eccentricity: 0.0425229
inclination: 63.4102°
perigee height: 788 km
apogee height: 1424 km
right ascension of ascending node: 345.2100°
argument of perigee: 359.6528°
revolutions per day: 13.40768468
mean anomaly at epoch: 0.3472°
orbit number at epoch: 0

The dashed part of the orbit path shows where the satellite is in the earth's shadow,  

DLR